[[{"header":{"parameterUnit":"m.s-1","parameterCategory":1,"la1":30.2991,"la2":30.254,"lo1":-89.0895,"lo2":-89.0444,"dy":0.0017,"dx":0.0017,"nx":28,"ny":28,"refTime":"2025-06-02T03:00:00:Z","depth":0,"parameterNumber":2,"parameterNumberName":"U-component_of_WINDS"},"data":[0,0,0,0,0,0,0,0,0,0,0,0,0,0,0,0,0,0,0,0,0,0,0,0,0,0,0,0,0,0,0,0,0,0,0,0,0,0,0,0,0,0,0,0,0,0,0,0,0,0,0,0,0,0,0,0,0,0,-6.6111,-6.6111,0,-6.616,-6.616,-6.6161,-6.6086,-6.6083,-6.608,-6.6078,-6.6126,-6.613,-6.6133,0,0,0,0,0,0,0,0,0,0,0,0,0,-6.5951,-6.5954,-6.611,-6.6111,-6.6112,-6.616,-6.616,-6.6161,-6.6086,-6.6083,-6.608,-6.6077,-6.6125,-6.6129,-6.6134,0,0,0,0,0,0,0,0,0,0,0,0,0,-6.6012,-6.5955,-6.611,-6.608,-6.6078,-6.6159,-6.616,-6.6161,-6.6087,-6.6083,-6.6079,-6.6075,-6.6123,-6.6129,-6.6134,-6.6247,0,0,-6.6151,-6.6154,0,0,0,0,0,0,0,0,-6.6009,-6.6018,-6.6084,-6.6082,-6.608,-6.6113,-6.6121,-6.619,-6.6088,-6.6083,-6.6078,-6.6073,-6.6125,-6.613,-6.6147,-6.6249,-6.6251,-6.6152,-6.6155,-6.6157,-6.6159,0,0,0,0,0,0,0,-6.6004,-6.6015,-6.613,-6.6085,-6.6083,-6.6064,-6.6068,-6.6134,-6.6125,-6.6083,-6.6078,-6.6085,-6.6123,-6.6142,-6.6148,-6.6252,-6.6152,-6.6156,-6.616,-6.6162,-6.6448,-6.6452,0,0,0,0,0,0,-6.6004,-6.6012,-6.6128,-6.6131,-6.6034,-6.607,-6.6075,-6.6106,-6.6124,-6.6123,-6.6088,-6.6081,-6.6135,-6.6142,-6.6149,-6.6281,-6.6157,-6.6163,-6.6166,-6.6443,-6.6448,-6.6453,0,0,0,0,0,0,-6.6001,-6.6015,-6.6126,-6.607,-6.6083,-6.6077,-6.6113,-6.6109,-6.6128,-6.6128,-6.6126,-6.611,-6.6132,-6.6142,-6.6223,-6.6281,-6.6165,-6.617,-6.6438,-6.6445,-6.6451,-6.6545,0,0,0,0,0,0,-6.5997,-6.6014,-6.6057,-6.6072,-6.6086,-6.62,-6.6116,-6.6113,-6.6139,-6.613,-6.6148,-6.6147,-6.613,-6.6215,-6.6229,-6.6287,-6.6175,-6.6433,-6.6441,-6.6449,-6.6537,-6.6554,-6.6569,0,0,0,0,0,-6.5991,-6.6081,-6.606,-6.6074,-6.614,-6.6203,-6.6211,-6.619,-6.6144,-6.6186,-6.6186,-6.6146,-6.6274,-6.6224,-6.6239,-6.6299,-6.6429,-6.6439,-6.6448,-6.653,-6.6551,-6.6569,0,0,0,0,0,0,-6.6072,-6.6083,-6.6059,-6.6157,-6.618,-6.619,-6.6243,-6.6213,-6.6249,-6.6239,-6.6211,-6.6216,-6.6303,-6.631,-6.6254,-6.6409,-6.6344,-6.6357,-6.6401,-6.6421,-6.6436,-6.6431,-6.6179,0,0,0,0,0,-6.6102,-6.6153,-6.6159,-6.6245,-6.6258,-6.6249,-6.6276,-6.6258,-6.628,-6.6289,-6.6295,-6.6318,-6.6363,-6.6393,-6.6434,-6.6539,-6.6541,-6.6589,-6.6605,-6.6618,-6.6628,-6.6682,-6.6703,-6.6484,-6.6484,-6.6484,0,0,-6.6163,-6.6175,-6.6209,-6.6262,-6.6277,-6.633,-6.6258,-6.6316,-6.6355,-6.6298,-6.6374,-6.6381,-6.6404,-6.6497,-6.6539,-6.6506,-6.6689,-6.663,-6.664,-6.6643,-6.6694,-6.6715,-6.6733,-6.6491,-6.649,-6.6489,0,0,-6.63,-6.6315,-6.6387,-6.6406,-6.6431,-6.6425,-6.6443,-6.6458,-6.646,-6.6537,-6.6495,-6.6541,-6.662,-6.6638,-6.6658,-6.6805,-6.6769,-6.682,-6.6901,-6.6955,-6.6972,-6.6987,-6.7037,-6.7056,-6.6831,-6.6831,-6.6831,0,-6.6371,-6.6449,-6.6428,-6.649,-6.6514,-6.6468,-6.654,-6.6559,-6.6596,-6.6613,-6.6577,-6.6675,-6.6688,-6.6784,-6.682,-6.6839,-6.6856,-6.6815,-6.6972,-6.6987,-6.7,-6.7047,-6.7067,-6.6837,-6.6836,-6.6835,-6.6835,0,-6.6535,-6.6591,-6.6646,-6.6684,-6.6715,-6.6783,-6.6771,-6.6805,-6.6786,-6.6784,-6.6863,-6.6877,-6.692,-6.6943,-6.6924,-6.7037,-6.7015,-6.6976,-6.6909,-6.7027,-6.7071,-6.7089,-6.6845,-6.6843,-6.6841,-6.684,0,0,-6.672,-6.6748,-6.6768,-6.6785,-6.6811,-6.6853,-6.6919,-6.6962,-6.699,-6.702,-6.7072,-6.7141,-6.7105,-6.7128,-6.7111,-6.7159,-6.7272,-6.7114,-6.7114,-6.714,-6.7395,-6.7421,-6.7443,-6.7251,-6.7254,-6.7257,-6.7392,0,-6.6854,-6.6967,-6.6951,-6.7059,-6.7109,-6.7067,-6.7124,-6.7146,-6.7147,-6.7189,-6.719,-6.7238,-6.7189,-6.7202,-6.7247,-6.7249,-6.7322,-6.7239,-6.7297,-6.7299,-6.7288,-6.7466,-6.7494,-6.7621,-6.7409,-6.7412,-6.7414,0,-6.7025,-6.706,-6.7174,-6.7192,-6.7212,-6.7264,-6.7302,-6.7344,-6.7369,-6.7366,-6.7392,-6.7368,-6.7433,-6.7368,-6.7457,-6.74,-6.7424,-6.7429,-6.7433,-6.7434,-6.7361,-6.7469,-6.7661,-6.7678,-6.7442,-6.7439,-6.7437,0,-6.7144,-6.7221,-6.7298,-6.7315,-6.7339,-6.7376,-6.7388,-6.7408,-6.7436,-6.747,-6.7487,-6.7529,-6.7551,-6.7583,-6.7571,-6.7525,-6.7661,-6.7596,-6.7658,-6.7659,-6.7685,-6.7683,-6.788,-6.7707,-6.7707,-6.7707,-6.7706,0,-6.7293,-6.7364,-6.7352,-6.74,-6.7477,-6.7459,-6.7537,-6.7543,-6.7563,-6.761,-6.7578,-6.7623,-6.7605,-6.7649,-6.764,-6.7713,-6.7725,-6.7723,-6.7719,-6.7723,-6.7723,-6.7735,-6.7725,-6.7712,-6.7711,-6.771,-6.7709,0,-6.7438,-6.7434,-6.7515,-6.7532,-6.7539,-6.7595,-6.7609,-6.7653,-6.7653,-6.7713,-6.7727,-6.7726,-6.7776,-6.7768,-6.7824,-6.7818,-6.7908,-6.7896,-6.79,-6.7895,-6.7958,-6.7951,-6.8166,-6.8192,-6.8006,-6.8008,-6.801,0,-6.7531,-6.7584,-6.7608,-6.7638,-6.7652,-6.7701,-6.7729,-6.7715,-6.7745,-6.7778,-6.7818,-6.7866,-6.7903,-6.7985,-6.7989,-6.8032,-6.8017,-6.809,-6.8023,-6.8026,-6.8014,-6.801,-6.8014,-6.8102,-6.8104,-6.8106,-6.8107,0,-6.7696,-6.7692,-6.7734,-6.7776,-6.781,-6.7843,-6.7871,-6.7898,-6.7886,-6.7922,-6.7973,-6.8002,-6.806,-6.8107,-6.8148,-6.8159,-6.8131,-6.8129,-6.8145,-6.8148,-6.8147,-6.8145,-6.7932,-6.8123,-6.8121,-6.812,-6.8119,-6.8119,-6.7815,-6.786,-6.7884,-6.7932,-6.7953,-6.7981,-6.8023,-6.8029,-6.8072,-6.8117,-6.8107,-6.8165,-6.8189,-6.824,-6.8257,-6.8302,-6.8274,-6.8299,-6.8304,-6.8309,-6.8315,-6.8144,-6.831,-6.8309,-6.8309,-6.8308,-6.8308,0,-6.7975,-6.7989,-6.8034,-6.8076,-6.8114,-6.8087,-6.8118,-6.8151,-6.8202,-6.8228,-6.8266,-6.8325,-6.8371,-6.838,-6.8424,-6.8458,-6.8446,-6.847,-6.8465,-6.8468,-6.8338,-6.8318,-6.8479,-6.8478,-6.8478,-6.8478,-6.8478,-6.8478,-6.8063,-6.8137,-6.8136,-6.822,-6.8234,-6.8291,-6.831,-6.8336,-6.8356,-6.8424,-6.8463,-6.8469,-6.8488,-6.8533,-6.8574,-6.8576,-6.8592,-6.862,-6.8616,-6.8494,-6.8477,-6.846,-6.8441,-6.8624,-6.8625,-6.8741,-6.8742,-6.8743]},{"header":{"parameterUnit":"m.s-1","parameterCategory":1,"la1":30.2991,"la2":30.254,"lo1":-89.0895,"lo2":-89.0444,"dy":0.0017,"dx":0.0017,"nx":28,"ny":28,"refTime":"2025-06-02T03:00:00:Z","depth":0,"parameterNumber":3,"parameterNumberName":"V-component_of_WINDS"},"data":[0,0,0,0,0,0,0,0,0,0,0,0,0,0,0,0,0,0,0,0,0,0,0,0,0,0,0,0,0,0,0,0,0,0,0,0,0,0,0,0,0,0,0,0,0,0,0,0,0,0,0,0,0,0,0,0,0,0,2.8322,2.8323,0,2.8418,2.8419,2.842,2.8512,2.8514,2.8515,2.8516,2.8608,2.861,2.8611,0,0,0,0,0,0,0,0,0,0,0,0,0,2.8214,2.8215,2.8322,2.8323,2.8324,2.8418,2.8419,2.842,2.8512,2.8514,2.8515,2.8516,2.8608,2.861,2.8611,0,0,0,0,0,0,0,0,0,0,0,0,0,2.828,2.8216,2.8322,2.8381,2.8388,2.8418,2.8419,2.8421,2.8512,2.8514,2.8515,2.8517,2.8607,2.8609,2.8611,2.8588,0,0,2.8618,2.8619,0,0,0,0,0,0,0,0,2.8276,2.8284,2.8371,2.8377,2.8384,2.8455,2.8415,2.8477,2.8511,2.8464,2.8516,2.8518,2.8556,2.8562,2.8576,2.8592,2.8596,2.8618,2.8619,2.862,2.862,0,0,0,0,0,0,0,2.8271,2.828,2.836,2.8372,2.8381,2.8402,2.8414,2.8427,2.8499,2.8469,2.8476,2.8486,2.8559,2.8574,2.8579,2.8598,2.8618,2.862,2.8621,2.8622,2.8602,2.86,0,0,0,0,0,0,2.8258,2.8276,2.8357,2.8363,2.8334,2.8403,2.8415,2.8431,2.8499,2.8511,2.8485,2.849,2.8569,2.8576,2.8582,2.8561,2.862,2.8622,2.8623,2.8604,2.8602,2.86,0,0,0,0,0,0,2.8256,2.8265,2.8353,2.8321,2.8334,2.8403,2.8419,2.8431,2.8446,2.8511,2.8524,2.8486,2.8571,2.858,2.8587,2.8565,2.8623,2.8625,2.8606,2.8603,2.8601,2.8516,0,0,0,0,0,0,2.8252,2.8263,2.8256,2.832,2.8335,2.8356,2.8418,2.8432,2.845,2.8458,2.8516,2.8527,2.8573,2.8583,2.8589,2.8569,2.8626,2.8608,2.8605,2.8602,2.8521,2.8511,2.8503,0,0,0,0,0,2.8248,2.8226,2.8255,2.8264,2.8328,2.8355,2.8364,2.8419,2.8448,2.8441,2.8483,2.8525,2.8567,2.8583,2.859,2.8571,2.861,2.8606,2.8602,2.8526,2.8513,2.8503,0,0,0,0,0,0,2.8154,2.8236,2.8268,2.8267,2.8304,2.8371,2.8363,2.8404,2.8431,2.8437,2.8503,2.8515,2.8515,2.8544,2.8561,2.8553,2.8594,2.8591,2.8534,2.8523,2.8513,2.8506,2.8628,0,0,0,0,0,2.8134,2.8151,2.8221,2.8213,2.823,2.8293,2.8307,2.8347,2.8387,2.8402,2.8444,2.848,2.8501,2.8514,2.8537,2.8527,2.8541,2.8517,2.8507,2.8499,2.8496,2.8494,2.8484,2.8587,2.8587,2.8587,0,0,2.8091,2.8138,2.8144,2.8196,2.8229,2.8244,2.8305,2.8318,2.833,2.8403,2.8414,2.8446,2.849,2.8489,2.849,2.8513,2.8471,2.8494,2.8487,2.8488,2.8489,2.8479,2.847,2.8584,2.8585,2.8585,0,0,2.8022,2.8059,2.8057,2.809,2.8141,2.8183,2.8183,2.8244,2.8269,2.8281,2.8337,2.8351,2.8386,2.8416,2.8436,2.838,2.842,2.8386,2.8336,2.8333,2.8325,2.8318,2.8299,2.8291,2.8382,2.8382,2.8382,0,2.7962,2.7988,2.8051,2.8061,2.8082,2.8153,2.8151,2.8179,2.8233,2.8246,2.8271,2.8318,2.8353,2.836,2.8347,2.836,2.8361,2.8379,2.8321,2.8315,2.831,2.8292,2.8284,2.8377,2.8378,2.8378,2.8379,0,2.7913,2.793,2.7923,2.7977,2.7997,2.8001,2.8063,2.8076,2.8115,2.8154,2.8166,2.821,2.8245,2.8249,2.8286,2.8262,2.8275,2.831,2.8352,2.8294,2.8279,2.8272,2.8371,2.8373,2.8374,2.8375,0,0,2.7784,2.7875,2.7871,2.7897,2.7959,2.7973,2.7981,2.8017,2.8027,2.8062,2.807,2.81,2.8133,2.8156,2.8196,2.8194,2.8148,2.8229,2.8232,2.8213,2.8125,2.8099,2.809,2.8176,2.8175,2.8174,2.8122,0,2.7725,2.7745,2.7803,2.7805,2.7822,2.789,2.7897,2.7935,2.7973,2.7992,2.8033,2.8053,2.8096,2.811,2.8111,2.8153,2.8131,2.8158,2.8183,2.8183,2.8169,2.8082,2.8053,2.8002,2.8116,2.8115,2.8114,0,2.7658,2.7693,2.7697,2.776,2.777,2.7775,2.7813,2.7831,2.7876,2.7904,2.793,2.7976,2.7987,2.8028,2.8044,2.8061,2.8075,2.8098,2.8097,2.8101,2.8144,2.8083,2.7987,2.7979,2.8105,2.8106,2.8107,0,2.7565,2.7612,2.7621,2.7641,2.7715,2.7717,2.7748,2.7795,2.7813,2.7847,2.7859,2.7892,2.791,2.7934,2.7988,2.8013,2.7999,2.8043,2.8021,2.802,2.8014,2.8014,2.7919,2.8023,2.8023,2.8023,2.8024,0,2.7493,2.7493,2.7581,2.7586,2.7589,2.7655,2.7654,2.7691,2.7733,2.7746,2.7806,2.7817,2.7888,2.7906,2.7949,2.7956,2.7963,2.7986,2.7997,2.798,2.7977,2.799,2.7994,2.8022,2.8022,2.8022,2.8023,0,2.7389,2.7448,2.7463,2.7532,2.755,2.7548,2.7608,2.7615,2.7658,2.7674,2.7681,2.7747,2.7773,2.7829,2.7869,2.7898,2.7894,2.7915,2.788,2.7887,2.7862,2.7863,2.7771,2.7762,2.7871,2.787,2.7869,0,2.7339,2.7341,2.7412,2.7426,2.7455,2.7477,2.7497,2.7563,2.7581,2.7633,2.7634,2.7665,2.7693,2.7731,2.7781,2.7812,2.7834,2.7799,2.7838,2.7822,2.7834,2.7833,2.7833,2.779,2.7788,2.7787,2.7786,0,2.7243,2.7273,2.7301,2.734,2.7363,2.7395,2.7431,2.7439,2.7513,2.753,2.7558,2.758,2.7623,2.7652,2.7692,2.7722,2.7766,2.7774,2.7771,2.7753,2.7733,2.7744,2.7856,2.7775,2.7776,2.7777,2.7778,2.7778,2.7165,2.7171,2.7223,2.7252,2.7287,2.7319,2.7331,2.7376,2.7401,2.7442,2.7479,2.7504,2.755,2.7608,2.7635,2.7655,2.7677,2.7672,2.767,2.7668,2.7661,2.7731,2.7662,2.7662,2.7663,2.7663,2.7663,0,2.7074,2.7111,2.7138,2.7188,2.721,2.7253,2.7295,2.7311,2.7333,2.7373,2.7401,2.7434,2.7463,2.7517,2.7551,2.7557,2.7578,2.7563,2.7563,2.757,2.7639,2.7639,2.7546,2.7546,2.7546,2.7546,2.7546,2.7546,2.7029,2.7041,2.7077,2.7108,2.7145,2.7171,2.7192,2.7223,2.7255,2.729,2.7316,2.7352,2.7398,2.7436,2.7465,2.748,2.749,2.7469,2.749,2.7554,2.7565,2.7575,2.7575,2.7471,2.747,2.742,2.7419,2.7419]}]]